User: anonymous   Login
Location: The D'Auria's Ocala Star Observatory
(29.0276°N, 82.1742°W)
Time: 14:11:16
(UTC-05:00)
Language:

Abrixas rocket - Orbit

View from above orbital plane
View from above orbital plane
View from above satellite
View from above satellite

Ground track
Ground track

The orbit data is extracted from the following two-line orbital elements,

1 25723U 99022C   17049.93833163 +.00007065 +00000-0 +12056-3 0  9993
2 25723 048.4170 077.1324 0010094 190.5687 169.5046 15.52340328987838
Epoch (UTC): 18 February 2017 22:31:11
Eccentricity: 0.0010094
inclination: 48.4170°
perigee height: 403 km
apogee height: 417 km
right ascension of ascending node: 77.1324°
argument of perigee: 190.5687°
revolutions per day: 15.52340328
mean anomaly at epoch: 169.5046°
orbit number at epoch: 98783

The dashed part of the orbit path shows where the satellite is in the earth's shadow,  

DLR